Find Starlink 32259

NORAD ID: 60937 Int'l Des: 2024-155 Owner: SPXS Country: US Constellation: starlink operational
LEOCIRCULAR

实时位置

正在加载3D地球...

关于 Starlink 32259

正在加载描述...

即将过境

Passes for default location (London). Set your location on the main map for personalized predictions.

高度历史

Loading altitude history...

两行轨道根数

1 60937U 24155P 26128.22487036 .00015164 00000-0 52272-3 0 9991
2 60937 53.1587 213.3003 0001259 71.6095 288.5042 15.30222077 95454
Epoch: May 8, 2026 • Age: 3 hours

当前状态

高度 489.1 km
速度 7.62 km/s
星下点 -39.91°S, 85.51°E
发射日期 Aug 31, 2024
运行时间 1.6 years
类型 internet

技术详情

分类 Payload
质量 730.00 kg
干质量 700.00 kg
总质量 730.00 kg
长度 0.30 m
直径 4.10 m
跨度 29.00 m
形状 Box + pan
制造商 SPXS
平台类型 Starlink V2M
阶段状态 In Orbit
所有者/国家 SPXS/US

Most Searched